Regional Weather Roundup
Issued by NWS

Home | Current Version | Previous Version | Graphics & Text | Print | Product List | Glossary On
Versions: 1 2 3 4 5 6 7 8 9 10 11 12 13 14 15 16 17 18 19 20 21 22 23 24 25 26 27 28 29 30 31 32 33 34 35 36 37 38 39 40 41 42 43 44 45 46 47 48 49
000
ASUS45 KBOI 300810
RWRID
WEATHER ROUNDUP FOR IDAHO
NATIONAL WEATHER SERVICE BOISE ID
100 AM MST FRI JAN 30 2015

NOTE: "FAIR" INDICATES FEW OR NO CLOUDS BELOW 12000 FEET
WITH NO SIGNIFICANT WEATHER AND/OR OBSTRUCTIONS TO VISIBILITY

IDZ012-014-300900-
SOUTHWEST IDAHO


CITY           SKY/WX    TMP DP  RH WIND       PRES   REMARKS
BOISE          CLEAR     33  30  88 SE3       30.31F
CALDWELL       CLOUDY    39  28  65 W5        30.34F
MOUNTAIN HOME  CLOUDY    37  34  89 NW7       30.30F WCI  31
$$

IDZ016-017-300900-
SOUTHCENTRAL IDAHO


CITY           SKY/WX    TMP DP  RH WIND       PRES   REMARKS
BURLEY         MOCLDY    34  28  79 E6        30.25F WCI  29
JEROME         CLOUDY    33  28  81 E7        30.27F WCI  27
TWIN FALLS     CLOUDY    34  31  88 S6        30.27F WCI  29
$$

IDZ019>023-300900-
SOUTHEAST IDAHO


CITY           SKY/WX    TMP DP  RH WIND       PRES   REMARKS
IDAHO FALLS    CLOUDY    30  27  88 N6        30.28F WCI  24
POCATELLO      CLEAR     29  28  96 CALM      30.27F
REXBURG        CLOUDY    26  23  88 NE6       30.28F WCI  19
$$

IDZ006-010-011-018-031-032-300900-
CENTRAL IDAHO MOUNTAINS


CITY           SKY/WX    TMP DP  RH WIND       PRES   REMARKS
MCCALL         CLEAR     17  14  88 CALM      30.27S
HAILEY         MOCLDY    28  21  74 NW12      30.29S WCI  18
STANLEY          N/A      7   2  80 CALM      30.31F
SALMON         CLOUDY    21  19  93 CALM      30.38F
CHALLIS        CLOUDY    29  23  78 CALM      30.34F
$$

IDZ002-004-006-007-026-300900-
NORTHERN IDAHO


CITY           SKY/WX    TMP DP  RH WIND       PRES   REMARKS
LEWISTON       CLOUDY    38  35  89 NE7       30.39R WCI  33
LOWELL           N/A     32  30  92 CALM      30.43S
COEUR D`ALENE  CLOUDY    30  28  93 NE6       30.36F WCI  24
MULLAN PASS    CLEAR     30  22  72 S5        30.26F WCI  25
$$



USA.gov is the U.S. government's official web portal to all federal, state and local government web resources and services.